Location: Newark
(47.5833°N, 8.1500°E)
Time: 13:41:00
(UTC+00:00)

Courier 1B Rocket - Visible Passes

Search period start: 30 October 2020 00:00
Search period end: 09 November 2020 00:00
Orbit: 920 x 1202 km, 28.2° (Epoch: 29 October)

Date Brightness Start Highest point End Pass type
(mag) Time Alt. Az. Time Alt. Az. Time Alt. Az.
30 Oct 7.2 17:29:06 10° S 17:31:50 13° SSE 17:34:38 10° SE visible
30 Oct 7.1 19:20:02 10° SW 19:22:53 15° SSW 19:22:53 15° SSW visible
31 Oct 7.0 18:19:33 10° SSW 18:23:16 15° S 18:25:34 13° SSE visible
01 Nov 7.2 17:19:24 10° SSW 17:22:35 14° S 17:25:51 10° SE visible
01 Nov 7.2 19:11:18 10° SW 19:14:37 14° S 19:14:37 14° S visible
02 Nov 7.2 18:10:34 10° SSW 18:14:03 14° S 18:17:20 11° SSE visible
03 Nov 7.2 17:10:08 10° SSW 17:13:22 14° S 17:16:42 10° SSE visible
03 Nov 7.3 19:03:07 10° SSW 19:05:32 12° SSW 19:06:28 12° S visible
04 Nov 7.3 18:01:57 10° SSW 18:04:51 13° S 18:07:49 10° SSE visible
05 Nov 7.3 17:01:12 10° SSW 17:04:11 13° S 17:07:14 10° SSE visible
06 Nov 7.4 17:54:08 10° SSW 17:55:39 11° SSW 17:57:09 10° S visible
07 Nov 7.4 16:52:44 10° SSW 16:55:01 12° S 16:57:19 10° SSE visible
